COSMOS 1131

Satellite information

Favourite Embed

Satellite Type and Status

PAYLOADIN ORBIT

Key statistics

Satellite COSMOS 1131 at a glance.

Uptime

16667

Days in orbit

Revolutions

≈ 12.5

Per day

Orbit

LEO

Low Earth Orbit

Inclination

74.0

Latest

Satellite identification and parameters

Extended collection of information and parameters for COSMOS 1131.

Object identification

Identified? True

Debris? False

Object name: COSMOS 1131

International designator: 1979-084B

Object number (NORAD): 11539

Object ID (CCSDS): 11539

Country: COMMONWEALTH OF INDEPENDENT STATES (CIS)

Current information (Y/N): Y

RCS size: MEDIUM

Orbital parameters

Period: 114.797 minutes

Inclination: 74.0243 deg

SMA: 7824.34 km

Apoapsis: 1481.803 km

Periapsis: 1410.607 km

RAAN: 316.8001 deg

Eccentricy: 0.0045496

Argument of periapsis: 75.7685 deg

Mean anomaly: 341.6158 deg

Mean motion: 12.54385999 rev/day

Mean motion (dot): -0.0000001 rev/day2

B* drag term: 0.000038601 1/REarth

Two-line elements (TLE)

Creation date: May 12, 2025, 7:41 p.m.

Reference frame: TEME

Reference center: EARTH

Epoch: May 12, 2025, 1:55 p.m. UTC

TLE line 0: 0 COSMOS 1131

TLE line 1: 1 11539U 79084B 25132.58031757 -.00000010 00000-0 38601-4 0 9990

TLE line 2: 2 11539 74.0243 316.8001 0045496 75.7685 341.6158 12.54385999 89354

Live tracking on map

Real-time ground track for satellite COSMOS 1131.

In-orbit conjunctions

There are no conjunctions computed for COSMOS 1131, at the moment. Check back to stay up to date, as we update our databases every day.

Go to all conjunctions

Associated space launch

Biological research satellite carrying live organisms

COSMOS 1131 was lifted into orbit during the mission ‘Soyuz U | Bion 5’, on board a Soyuz U space rocket.

The launch took place on Sept. 25, 1979, 3:30 p.m. from 41/1.

For more information about the launch, click the button.

Launch to space Soyuz U | Bion 5
Soyuz U | Bion 5

Agency: N/A

Status: Launch Successful

Launch date: Sept. 25, 1979, 3:30 p.m. UTC

Rocket: Soyuz U

Launch pad: 41/1

Location: Plesetsk Cosmodrome, Russian Federation

...

Latest news about this satellite

There are no fresh news available about this satellite. Check back as we update our databases every day.


Newsletter sign-up

Weekly statistics, charts and insights to help you stay on top of the space industry.